Location: Madrid
(40.4000°N, 3.6830°W)
Time: 16:17:29
(UTC+02:00)

ISS - Pass Details

Date: 13 March 2021
Orbit: 418 x 422 km, 51.6° (Epoch: 16 April)

Event Time Altitude Azimuth Distance (km) Brightness Sun altitude
Exits shadow 06:36:59 17° 256° (WSW) 1,154 -2.2 -10.8°
Maximum altitude 06:38:08 20° 228° (SW) 1,039 -2.2 -10.6°
Drops below altitude 10° 06:40:38 10° 179° (S) 1,487 -1.0 -10.1°
Sets 06:43:05 0° 162° (SSE) 2,346 0.2 -9.7°
